Time,TemperatureF,DewpointF,PressureIn,WindDirection,WindDirectionDegrees,WindSpeedMPH,WindSpeedGustMPH,Humidity,HourlyPrecipIn,Conditions,Clouds,dailyrainin,SoftwareType,DateUTC
2013-07-13 00:02:00,67.0,65.0,30.09,ESE,103,1.0,5.0,93,0.02,,,0.13,,2013-07-13 04:02:00,
2013-07-13 00:32:00,66.0,64.0,30.10,East,90,0.0,8.0,93,0.02,,,0.13,,2013-07-13 04:32:00,
2013-07-13 00:43:00,66.0,64.0,30.10,ENE,70,1.0,3.0,93,0.02,,,0.13,,2013-07-13 04:43:00,
2013-07-13 00:52:00,66.0,64.0,30.10,ESE,106,1.0,6.0,93,0.02,,,0.14,,2013-07-13 04:52:00,
2013-07-13 01:01:00,66.0,64.0,30.11,ENE,78,0.0,3.0,93,0.01,,,0.14,,2013-07-13 05:01:00,
2013-07-13 01:11:00,66.0,64.0,30.11,East,87,0.0,3.0,93,0.01,,,0.14,,2013-07-13 05:11:00,
2013-07-13 01:42:00,66.0,64.0,30.11,ESE,117,1.0,3.0,93,0.01,,,0.14,,2013-07-13 05:42:00,
2013-07-13 01:52:00,66.0,64.0,30.11,East,84,3.0,8.0,93,0.00,,,0.14,,2013-07-13 05:52:00,
2013-07-13 02:02:00,66.0,64.0,30.11,East,86,0.0,5.0,93,0.00,,,0.14,,2013-07-13 06:02:00,
2013-07-13 02:11:00,66.0,64.0,30.11,NE,48,1.0,4.0,93,0.00,,,0.14,,2013-07-13 06:11:00,
2013-07-13 02:32:00,66.0,64.0,30.11,East,94,0.0,7.0,93,0.00,,,0.14,,2013-07-13 06:32:00,
2013-07-13 02:52:00,66.0,64.0,30.11,East,84,1.0,4.0,94,0.00,,,0.14,,2013-07-13 06:52:00,
2013-07-13 03:02:00,66.0,64.0,30.11,East,84,1.0,5.0,94,0.00,,,0.14,,2013-07-13 07:02:00,
2013-07-13 03:11:00,66.0,64.0,30.11,East,79,0.0,6.0,94,0.00,,,0.14,,2013-07-13 07:11:00,
2013-07-13 03:22:00,66.0,64.0,30.11,ESE,110,1.0,4.0,94,0.00,,,0.14,,2013-07-13 07:22:00,
2013-07-13 03:33:00,66.0,64.0,30.11,ESE,110,1.0,6.0,94,0.00,,,0.14,,2013-07-13 07:33:00,
2013-07-13 03:44:00,66.0,64.0,30.11,ESE,109,0.0,3.0,94,0.00,,,0.14,,2013-07-13 07:44:00,
2013-07-13 03:53:00,66.0,64.0,30.11,East,101,2.0,5.0,94,0.00,,,0.14,,2013-07-13 07:53:00,
2013-07-13 04:02:00,66.0,65.0,30.11,East,86,1.0,3.0,95,0.00,,,0.14,,2013-07-13 08:02:00,
2013-07-13 04:22:00,66.0,65.0,30.12,ENE,76,1.0,8.0,95,0.00,,,0.14,,2013-07-13 08:22:00,
2013-07-13 04:33:00,66.0,65.0,30.12,East,98,3.0,7.0,95,0.00,,,0.14,,2013-07-13 08:33:00,
2013-07-13 04:43:00,66.0,65.0,30.12,ESE,109,2.0,9.0,95,0.00,,,0.14,,2013-07-13 08:43:00,
2013-07-13 04:52:00,66.0,65.0,30.14,East,94,2.0,5.0,95,0.00,,,0.14,,2013-07-13 08:52:00,
2013-07-13 05:02:00,67.0,66.0,30.14,East,87,1.0,3.0,95,0.00,,,0.14,,2013-07-13 09:02:00,
2013-07-13 05:22:00,67.0,66.0,30.14,East,98,1.0,5.0,95,0.00,,,0.14,,2013-07-13 09:22:00,
2013-07-13 05:33:00,67.0,66.0,30.14,NE,56,1.0,3.0,95,0.00,,,0.14,,2013-07-13 09:33:00,
2013-07-13 05:43:00,67.0,66.0,30.14,East,83,1.0,4.0,96,0.01,,,0.15,,2013-07-13 09:43:00,
2013-07-13 05:53:00,67.0,66.0,30.14,East,83,0.0,3.0,96,0.01,,,0.15,,2013-07-13 09:53:00,
2013-07-13 06:01:00,67.0,66.0,30.14,East,85,0.0,3.0,96,0.01,,,0.15,,2013-07-13 10:01:00,
2013-07-13 06:32:00,67.0,66.0,30.16,East,94,0.0,1.0,96,0.01,,,0.15,,2013-07-13 10:32:00,
2013-07-13 06:43:00,67.0,66.0,30.16,ESE,107,0.0,3.0,96,0.00,,,0.15,,2013-07-13 10:43:00,
2013-07-13 07:02:00,68.0,67.0,30.17,East,88,0.0,2.0,96,0.00,,,0.15,,2013-07-13 11:02:00,
2013-07-13 07:11:00,68.0,67.0,30.17,East,88,0.0,2.0,96,0.00,,,0.15,,2013-07-13 11:11:00,
2013-07-13 07:32:00,68.0,67.0,30.18,East,97,0.0,5.0,96,0.00,,,0.15,,2013-07-13 11:32:00,
2013-07-13 07:52:00,68.0,67.0,30.18,ENE,75,0.0,3.0,96,0.00,,,0.15,,2013-07-13 11:52:00,
2013-07-13 08:02:00,68.0,67.0,30.19,ESE,103,0.0,2.0,96,0.00,,,0.15,,2013-07-13 12:02:00,
2013-07-13 08:12:00,68.0,67.0,30.19,ESE,104,0.0,1.0,96,0.00,,,0.15,,2013-07-13 12:12:00,
2013-07-13 08:32:00,68.0,67.0,30.20,East,101,0.0,3.0,96,0.00,,,0.15,,2013-07-13 12:32:00,
2013-07-13 09:01:00,68.0,67.0,30.21,ESE,104,0.0,3.0,96,0.00,,,0.15,,2013-07-13 13:01:00,
2013-07-13 09:43:00,69.0,68.0,30.22,ESE,103,0.0,1.0,96,0.01,,,0.16,,2013-07-13 13:43:00,
2013-07-13 09:53:00,69.0,68.0,30.22,ESE,103,0.0,0.0,96,0.01,,,0.16,,2013-07-13 13:53:00,
2013-07-13 10:32:00,70.0,69.0,30.23,East,99,0.0,5.0,96,0.00,,,0.16,,2013-07-13 14:32:00,
2013-07-13 10:53:00,70.0,69.0,30.23,ENE,71,0.0,3.0,96,0.00,,,0.16,,2013-07-13 14:53:00,
2013-07-13 11:02:00,70.0,69.0,30.23,ESE,103,0.0,4.0,96,0.00,,,0.16,,2013-07-13 15:02:00,
2013-07-13 11:33:00,71.0,70.0,30.22,ENE,75,1.0,5.0,96,0.00,,,0.16,,2013-07-13 15:33:00,
2013-07-13 11:43:00,72.0,71.0,30.22,East,92,1.0,6.0,96,0.00,,,0.16,,2013-07-13 15:43:00,
2013-07-13 11:53:00,72.0,70.0,30.23,East,90,0.0,6.0,95,0.00,,,0.16,,2013-07-13 15:53:00,
2013-07-13 12:02:00,72.0,70.0,30.23,ESE,105,1.0,5.0,95,0.00,,,0.16,,2013-07-13 16:02:00,
2013-07-13 12:12:00,72.0,70.0,30.23,ESE,113,0.0,3.0,94,0.00,,,0.16,,2013-07-13 16:12:00,
2013-07-13 12:33:00,73.0,71.0,30.23,East,81,0.0,4.0,94,0.00,,,0.16,,2013-07-13 16:33:00,
2013-07-13 12:43:00,74.0,72.0,30.23,East,82,0.0,1.0,93,0.00,,,0.16,,2013-07-13 16:43:00,
2013-07-13 12:53:00,74.0,71.0,30.24,East,91,1.0,6.0,91,0.00,,,0.16,,2013-07-13 16:53:00,
2013-07-13 13:01:00,75.0,72.0,30.23,East,98,1.0,3.0,91,0.00,,,0.16,,2013-07-13 17:01:00,
2013-07-13 13:12:00,76.0,73.0,30.23,ESE,107,1.0,4.0,89,0.00,,,0.16,,2013-07-13 17:12:00,
2013-07-13 13:22:00,76.0,72.0,30.23,East,90,1.0,6.0,88,0.00,,,0.16,,2013-07-13 17:22:00,
2013-07-13 13:33:00,77.0,72.0,30.23,ESE,102,1.0,3.0,86,0.00,,,0.16,,2013-07-13 17:33:00,
2013-07-13 13:43:00,78.0,73.0,30.23,East,92,2.0,7.0,84,0.00,,,0.16,,2013-07-13 17:43:00,
2013-07-13 13:52:00,77.0,72.0,30.23,East,93,1.0,6.0,84,0.00,,,0.16,,2013-07-13 17:52:00,
2013-07-13 14:01:00,77.0,72.0,30.23,ESE,120,0.0,5.0,85,0.00,,,0.16,,2013-07-13 18:01:00,
2013-07-13 14:22:00,78.0,73.0,30.23,East,90,0.0,6.0,84,0.00,,,0.16,,2013-07-13 18:22:00,
2013-07-13 14:32:00,78.0,72.0,30.23,NE,51,1.0,5.0,83,0.00,,,0.16,,2013-07-13 18:32:00,
2013-07-13 14:44:00,78.0,72.0,30.23,East,83,1.0,5.0,82,0.00,,,0.16,,2013-07-13 18:44:00,
2013-07-13 14:53:00,79.0,73.0,30.23,East,95,0.0,6.0,82,0.00,,,0.16,,2013-07-13 18:53:00,
2013-07-13 15:02:00,78.0,72.0,30.23,East,84,0.0,7.0,83,0.00,,,0.16,,2013-07-13 19:02:00,
2013-07-13 15:11:00,78.0,72.0,30.23,ESE,109,0.0,4.0,83,0.00,,,0.16,,2013-07-13 19:11:00,
2013-07-13 15:22:00,78.0,72.0,30.23,East,81,1.0,5.0,82,0.00,,,0.16,,2013-07-13 19:22:00,
2013-07-13 15:32:00,78.0,72.0,30.23,East,91,1.0,5.0,83,0.00,,,0.16,,2013-07-13 19:32:00,
2013-07-13 15:44:00,77.0,72.0,30.23,East,92,1.0,5.0,84,0.00,,,0.16,,2013-07-13 19:44:00,
2013-07-13 15:52:00,77.0,72.0,30.23,East,101,1.0,5.0,86,0.00,,,0.16,,2013-07-13 19:52:00,
2013-07-13 16:01:00,78.0,73.0,30.22,ENE,65,0.0,3.0,86,0.00,,,0.16,,2013-07-13 20:01:00,
2013-07-13 16:11:00,78.0,73.0,30.22,East,97,2.0,5.0,85,0.00,,,0.16,,2013-07-13 20:11:00,
2013-07-13 16:22:00,78.0,73.0,30.22,East,84,1.0,4.0,85,0.00,,,0.16,,2013-07-13 20:22:00,
2013-07-13 16:33:00,78.0,73.0,30.22,East,95,0.0,3.0,84,0.00,,,0.16,,2013-07-13 20:33:00,
2013-07-13 16:43:00,79.0,74.0,30.22,East,96,0.0,2.0,84,0.00,,,0.16,,2013-07-13 20:43:00,
2013-07-13 16:52:00,79.0,73.0,30.22,East,86,1.0,5.0,83,0.00,,,0.16,,2013-07-13 20:52:00,
2013-07-13 17:02:00,80.0,74.0,30.22,East,98,0.0,1.0,83,0.00,,,0.16,,2013-07-13 21:02:00,
2013-07-13 17:12:00,80.0,74.0,30.22,NE,55,0.0,2.0,82,0.00,,,0.16,,2013-07-13 21:12:00,
2013-07-13 17:22:00,79.0,73.0,30.23,East,92,1.0,3.0,82,0.00,,,0.15,,2013-07-13 21:22:00,
2013-07-13 17:32:00,79.0,73.0,30.23,East,98,1.0,5.0,82,0.00,,,0.15,,2013-07-13 21:32:00,
2013-07-13 17:43:00,79.0,73.0,30.23,NE,55,0.0,3.0,83,0.00,,,0.15,,2013-07-13 21:43:00,
2013-07-13 17:53:00,78.0,72.0,30.23,NE,55,0.0,1.0,83,0.00,,,0.15,,2013-07-13 21:53:00,
2013-07-13 18:01:00,78.0,73.0,30.23,East,81,0.0,2.0,84,0.00,,,0.15,,2013-07-13 22:01:00,
2013-07-13 18:12:00,78.0,73.0,30.23,East,90,0.0,5.0,85,0.00,,,0.15,,2013-07-13 22:12:00,
2013-07-13 18:22:00,78.0,73.0,30.23,ENE,60,1.0,4.0,84,0.00,,,0.15,,2013-07-13 22:22:00,
2013-07-13 18:32:00,78.0,73.0,30.24,NE,55,0.0,3.0,85,0.00,,,0.15,,2013-07-13 22:32:00,
2013-07-13 18:43:00,78.0,73.0,30.24,East,88,0.0,3.0,85,0.00,,,0.15,,2013-07-13 22:43:00,
2013-07-13 19:02:00,77.0,72.0,30.24,East,91,1.0,3.0,85,0.00,,,0.15,,2013-07-13 23:02:00,
2013-07-13 19:11:00,77.0,72.0,30.24,East,94,0.0,5.0,86,0.00,,,0.15,,2013-07-13 23:11:00,
2013-07-13 19:22:00,77.0,72.0,30.25,East,94,0.0,1.0,86,0.00,,,0.15,,2013-07-13 23:22:00,
2013-07-13 19:32:00,77.0,73.0,30.25,East,94,1.0,2.0,87,0.00,,,0.15,,2013-07-13 23:32:00,
2013-07-13 19:42:00,77.0,73.0,30.25,East,94,0.0,1.0,87,0.00,,,0.15,,2013-07-13 23:42:00,
2013-07-13 19:53:00,76.0,72.0,30.25,East,94,0.0,2.0,87,0.00,,,0.15,,2013-07-13 23:53:00,
2013-07-13 20:01:00,76.0,72.0,30.25,East,90,1.0,3.0,87,0.00,,,0.15,,2013-07-14 00:01:00,
2013-07-13 20:12:00,76.0,72.0,30.25,East,91,0.0,2.0,88,0.00,,,0.15,,2013-07-14 00:12:00,
2013-07-13 20:22:00,76.0,72.0,30.25,East,91,0.0,1.0,88,0.00,,,0.15,,2013-07-14 00:22:00,
2013-07-13 20:42:00,76.0,73.0,30.25,East,91,0.0,0.0,89,0.00,,,0.15,,2013-07-14 00:42:00,
2013-07-13 20:53:00,75.0,72.0,30.25,East,91,0.0,0.0,89,0.00,,,0.15,,2013-07-14 00:53:00,
2013-07-13 21:02:00,75.0,72.0,30.26,East,91,0.0,0.0,89,0.00,,,0.15,,2013-07-14 01:02:00,
2013-07-13 21:11:00,75.0,72.0,30.26,East,91,0.0,0.0,89,0.00,,,0.15,,2013-07-14 01:11:00,
2013-07-13 21:22:00,75.0,72.0,30.25,East,91,0.0,0.0,89,0.00,,,0.11,,2013-07-14 01:22:00,
2013-07-13 21:32:00,75.0,72.0,30.26,East,91,0.0,0.0,90,0.00,,,0.11,,2013-07-14 01:32:00,
2013-07-13 21:43:00,75.0,72.0,30.26,East,91,0.0,0.0,90,0.00,,,0.11,,2013-07-14 01:43:00,
2013-07-13 21:52:00,75.0,72.0,30.26,East,91,0.0,0.0,90,0.00,,,0.11,,2013-07-14 01:52:00,
2013-07-13 22:02:00,75.0,72.0,30.26,East,91,0.0,0.0,90,0.00,,,0.11,,2013-07-14 02:02:00,
2013-07-13 22:11:00,75.0,72.0,30.26,East,91,0.0,0.0,90,0.00,,,0.11,,2013-07-14 02:11:00,
2013-07-13 22:22:00,75.0,72.0,30.27,East,91,0.0,0.0,91,0.00,,,0.06,,2013-07-14 02:22:00,
2013-07-13 22:32:00,75.0,72.0,30.27,East,91,0.0,0.0,91,0.00,,,0.06,,2013-07-14 02:32:00,
2013-07-13 22:43:00,75.0,72.0,30.27,East,91,0.0,0.0,91,0.00,,,0.06,,2013-07-14 02:43:00,
2013-07-13 22:53:00,75.0,72.0,30.27,East,91,0.0,0.0,91,0.00,,,0.06,,2013-07-14 02:53:00,
2013-07-13 23:02:00,74.0,71.0,30.27,East,91,0.0,0.0,91,0.00,,,0.06,,2013-07-14 03:02:00,
2013-07-13 23:11:00,74.0,71.0,30.27,East,91,0.0,0.0,91,0.00,,,0.06,,2013-07-14 03:11:00,
2013-07-13 23:22:00,74.0,71.0,30.27,East,91,0.0,0.0,91,0.00,,,0.05,,2013-07-14 03:22:00,
2013-07-13 23:32:00,74.0,71.0,30.27,East,91,0.0,0.0,91,0.00,,,0.05,,2013-07-14 03:32:00,
2013-07-13 23:43:00,74.0,71.0,30.27,East,91,0.0,0.0,91,0.00,,,0.05,,2013-07-14 03:43:00,
2013-07-13 23:53:00,74.0,71.0,30.27,East,91,0.0,0.0,91,0.00,,,0.05,,2013-07-14 03:53:00,